Alva, OK

8:19 PM CDT on May 25, 2017 (GMT -0500)
Alva Regional

Weather History for KAVK - June, 2014

Change the Weather History Date:

Thursday, June 19, 2014

  Actual Average Record
Temperature  
Mean Temperature 78 °F -  
Max Temperature 91 °F 93 °F 111 °F (1952)
Min Temperature 66 °F 66 °F 53 °F (1976)
Cooling Degree Days 14    
Growing Degree Days 28 (Base 50)    
Moisture  
Dew Point 65 °F    
Average Humidity 64    
Maximum Humidity 88    
Minimum Humidity 40    
Precipitation  
Precipitation 0.01 in - - ()
Sea Level Pressure  
Sea Level Pressure 29.94 in    
Wind  
Wind Speed 13 mph (SSW)    
Max Wind Speed 24 mph    
Max Gust Speed 36 mph    
Visibility 10 miles    
Events Rain , Thunderstorm    
Averages and records for this station are not official NWS values.
T = Trace of Precipitation, MM = Missing Value Source: NWS Daily Summary

Daily Weather History Graph

Daily Weather History Graph

Search for Another Location

Airport or City:

Trip Planner

Search our weather history database for the weather conditions in past years. The results will help you decide how hot, cold, wet, or windy it might be!

Date:

Astronomy

Jun. 19, 2014 Rise Set
Actual Time 6:15 AM CDT 8:56 PM CDT
Civil Twilight 5:44 AM CDT 9:27 PM CDT
Nautical Twilight 5:06 AM CDT 10:05 PM CDT
Astronomical Twilight 4:23 AM CDT 10:48 PM CDT
Moon 1:10 AM CDT (6/19) 1:37 PM CDT (6/19)
Length of Visible Light 15h 42m
Length of Day
14h 40m
Waning Gibbous, 51% of the Moon is Illuminated
Jun 19
Waning Gibbous
Jun 19
Last Quarter
Jun 27
New
Jul 5
First Quarter
Jul 12
Full

Hourly Weather History & Observations

Time (CDT) Temp. Heat Index Dew Point Humidity Pressure Visibility Wind Dir Wind Speed Gust Speed Precip Events Conditions
12:10 AM 78.8 °F - 68.0 °F 69% 29.85 in 10.0 mi South 15.0 mph 26.5 mph N/A   Clear
12:30 AM 77.0 °F - 68.0 °F 74% 29.86 in 10.0 mi South 17.3 mph 23.0 mph N/A   Clear
12:50 AM 77.0 °F - 68.0 °F 74% 29.87 in 10.0 mi South 16.1 mph - N/A   Clear
1:10 AM 77.0 °F - 68.0 °F 74% 29.86 in 10.0 mi South 15.0 mph - N/A   Partly Cloudy
1:30 AM 77.0 °F - 68.0 °F 74% 29.86 in 10.0 mi South 13.8 mph - N/A   Clear
1:50 AM 78.8 °F - 66.2 °F 65% 29.86 in 10.0 mi SSW 16.1 mph - N/A   Partly Cloudy
2:15 AM 78.8 °F - 66.2 °F 65% 29.86 in 10.0 mi SSW 15.0 mph - N/A   Scattered Clouds
2:35 AM 78.8 °F - 66.2 °F 65% 29.86 in 10.0 mi South 12.7 mph - N/A   Mostly Cloudy
2:55 AM 78.8 °F - 66.2 °F 65% 29.86 in 10.0 mi South 16.1 mph 19.6 mph N/A   Overcast
3:10 AM 78.8 °F - 66.2 °F 65% 29.87 in 10.0 mi SSW 24.2 mph 29.9 mph N/A   Mostly Cloudy
3:30 AM 77.0 °F - 62.6 °F 61% 29.84 in 10.0 mi SSW 20.7 mph 34.5 mph N/A   Partly Cloudy
3:50 AM 75.2 °F - 60.8 °F 61% 29.83 in 10.0 mi SSW 15.0 mph - N/A   Partly Cloudy
4:10 AM 75.2 °F - 60.8 °F 61% 29.83 in 10.0 mi South 16.1 mph 20.7 mph N/A   Mostly Cloudy
5:15 AM 69.8 °F - 62.6 °F 78% 29.88 in 10.0 mi SW 19.6 mph 25.3 mph N/A Rain Light Rain
5:30 AM 69.8 °F - 62.6 °F 78% 29.88 in 9.0 mi SW 20.7 mph 27.6 mph N/A Rain Light Rain
5:50 AM 69.8 °F - 60.8 °F 73% 29.88 in 9.0 mi WSW 24.2 mph 35.7 mph 0.01 in Rain Light Rain
6:10 AM 68.0 °F - 62.6 °F 83% 29.92 in 10.0 mi South 18.4 mph - N/A Rain Light Rain
6:30 AM 68.0 °F - 62.6 °F 83% 29.90 in 9.0 mi SW 13.8 mph - N/A Rain Light Rain
6:50 AM 66.2 °F - 62.6 °F 88% 29.90 in 10.0 mi SSW 10.4 mph - N/A Rain Light Rain
7:10 AM 66.2 °F - 60.8 °F 83% 29.88 in 10.0 mi SSW 9.2 mph - N/A   Clear
7:30 AM 66.2 °F - 62.6 °F 88% 29.86 in 10.0 mi SSE 5.8 mph - N/A   Clear
7:50 AM 68.0 °F - 62.6 °F 83% 29.86 in 10.0 mi ESE 5.8 mph - N/A   Clear
8:15 AM 68.0 °F - 64.4 °F 88% 29.91 in 10.0 mi SW 9.2 mph - N/A   Clear
8:30 AM 68.0 °F - 64.4 °F 88% 29.92 in 10.0 mi SW 8.1 mph - N/A   Clear
8:50 AM 73.4 °F - 62.6 °F 69% 29.94 in 10.0 mi SSW 9.2 mph - N/A   Clear
9:10 AM 75.2 °F - 62.6 °F 65% 29.96 in 10.0 mi SW 5.8 mph - N/A   Clear
9:50 AM 75.2 °F - 64.4 °F 69% 29.96 in 10.0 mi SSW 3.5 mph - N/A   Clear
10:15 AM 78.8 °F - 62.6 °F 57% 29.96 in 10.0 mi West 6.9 mph - N/A   Clear
10:35 AM 82.4 °F 83.4 °F 62.6 °F 51% 29.97 in 10.0 mi WNW 8.1 mph - N/A   Clear
10:50 AM 82.4 °F 82.9 °F 60.8 °F 48% 29.97 in 10.0 mi West 4.6 mph - N/A   Clear
11:10 AM 86.0 °F 86.1 °F 60.8 °F 43% 29.97 in 10.0 mi NNW 8.1 mph 18.4 mph N/A   Clear
11:30 AM 86.0 °F 85.4 °F 59.0 °F 40% 29.97 in 10.0 mi WNW 9.2 mph - N/A   Clear
11:50 AM 86.0 °F 85.4 °F 59.0 °F 40% 29.98 in 10.0 mi West 6.9 mph - N/A   Clear
12:10 PM 86.0 °F 85.4 °F 59.0 °F 40% 29.98 in 10.0 mi Calm Calm - N/A   Clear
12:30 PM 87.8 °F 88.5 °F 62.6 °F 43% 29.98 in 10.0 mi West 9.2 mph - N/A   Clear
12:50 PM 87.8 °F 88.5 °F 62.6 °F 43% 29.99 in 10.0 mi SW 9.2 mph - N/A   Clear
1:10 PM 87.8 °F 89.4 °F 64.4 °F 46% 29.98 in 10.0 mi West 9.2 mph 16.1 mph N/A   Scattered Clouds
1:30 PM 87.8 °F 89.4 °F 64.4 °F 46% 29.98 in 10.0 mi Calm Calm - N/A   Partly Cloudy
1:50 PM 87.8 °F 89.4 °F 64.4 °F 46% 29.98 in 10.0 mi South 5.8 mph - N/A   Partly Cloudy
2:10 PM 87.8 °F 88.5 °F 62.6 °F 43% 29.98 in 10.0 mi South 6.9 mph - N/A   Scattered Clouds
2:30 PM 89.6 °F 91.1 °F 64.4 °F 43% 29.98 in 10.0 mi SSW 10.4 mph - N/A   Scattered Clouds
2:50 PM 89.6 °F 91.1 °F 64.4 °F 43% 29.98 in 10.0 mi South 6.9 mph - N/A   Partly Cloudy
3:10 PM 89.6 °F 91.1 °F 64.4 °F 43% 29.98 in 10.0 mi SSE 10.4 mph - N/A   Clear
3:35 PM 89.6 °F 91.1 °F 64.4 °F 43% 29.97 in 10.0 mi SSW 11.5 mph 18.4 mph N/A   Partly Cloudy
3:50 PM 91.4 °F 94.0 °F 66.2 °F 43% 29.97 in 10.0 mi South 16.1 mph - N/A   Clear
4:10 PM 89.6 °F 93.4 °F 68.0 °F 49% 29.96 in 10.0 mi South 17.3 mph 21.9 mph N/A   Mostly Cloudy
4:30 PM 89.6 °F 93.4 °F 68.0 °F 49% 29.95 in 10.0 mi South 19.6 mph 24.2 mph N/A   Scattered Clouds
4:50 PM 86.0 °F 90.4 °F 69.8 °F 58% 29.96 in 10.0 mi South 15.0 mph - N/A   Clear
5:10 PM 86.0 °F 89.4 °F 68.0 °F 55% 29.96 in 10.0 mi South 13.8 mph - N/A Thunderstorm Clear
5:30 PM 84.2 °F 88.4 °F 69.8 °F 62% 29.97 in 10.0 mi SSW 12.7 mph - N/A   Clear
5:50 PM 82.4 °F 87.2 °F 71.6 °F 70% 29.96 in 10.0 mi SSW 15.0 mph 18.4 mph N/A   Scattered Clouds
6:10 PM 82.4 °F 86.3 °F 69.8 °F 66% 29.97 in 10.0 mi South 11.5 mph - N/A   Partly Cloudy
6:30 PM 84.2 °F 89.6 °F 71.6 °F 66% 29.96 in 10.0 mi SSW 11.5 mph - N/A   Clear
6:50 PM 86.0 °F 91.8 °F 71.6 °F 62% 29.96 in 10.0 mi South 12.7 mph - N/A   Clear
7:10 PM 86.0 °F 91.8 °F 71.6 °F 62% 29.95 in 10.0 mi SSE 11.5 mph - N/A   Clear
7:30 PM 84.2 °F 89.6 °F 71.6 °F 66% 29.98 in 10.0 mi South 12.7 mph - N/A   Clear
7:50 PM 84.2 °F 89.6 °F 71.6 °F 66% 29.97 in 10.0 mi South 20.7 mph 25.3 mph N/A   Mostly Cloudy
8:10 PM 78.8 °F - 66.2 °F 65% 29.98 in 10.0 mi South 16.1 mph 24.2 mph N/A   Mostly Cloudy
8:30 PM 77.0 °F - 64.4 °F 65% 29.98 in 10.0 mi South 15.0 mph 19.6 mph N/A   Partly Cloudy
8:55 PM 77.0 °F - 62.6 °F 61% 29.97 in 10.0 mi SSW 11.5 mph - N/A   Clear
9:15 PM 75.2 °F - 64.4 °F 69% 29.98 in 10.0 mi South 9.2 mph - N/A   Clear
9:30 PM 73.4 °F - 64.4 °F 73% 29.97 in 10.0 mi South 6.9 mph - N/A   Partly Cloudy
9:50 PM 73.4 °F - 64.4 °F 73% 29.97 in 10.0 mi SSW 5.8 mph - N/A   Mostly Cloudy
10:10 PM 71.6 °F - 64.4 °F 78% 29.99 in 10.0 mi South 9.2 mph - N/A   Mostly Cloudy
10:30 PM 71.6 °F - 64.4 °F 78% 29.99 in 10.0 mi SSW 5.8 mph - N/A   Partly Cloudy
10:50 PM 69.8 °F - 64.4 °F 83% 29.99 in 10.0 mi SSW 6.9 mph - N/A   Clear
11:10 PM 69.8 °F - 64.4 °F 83% 30.00 in 10.0 mi South 6.9 mph - N/A   Mostly Cloudy
11:30 PM 69.8 °F - 64.4 °F 83% 30.01 in 10.0 mi South 9.2 mph - N/A   Scattered Clouds
11:50 PM 69.8 °F - 64.4 °F 83% 30.01 in 10.0 mi South 8.1 mph - N/A   Partly Cloudy